ELECTRON KICK STAGE R/B, 63207

Orbit data source: Space-Track

ELECTRON KICK STAGE R/B, 63207 is space debris in LEO originally from a launch on Sat, 15 Mar 2025 UTC launched from the Rocket Lab Launch Complex (RLLC). Debris objects in space refer to the collection of defunct objects orbiting the Earth. Examples of debris include non-operational satellites, rocket bodies, and fragments generated from explosions, collisions, or faulty payload assembly.

Loading next visibility...
Identifier
63207, 2025-050C
Orbit
LEO
Country
Flag of USUS
Related business
Manufacturer
Rocket Lab
Mission
Spacecraft
Bus & Motor
KICK STAGE, CURIE
Mass
~42 kg wet, ~42 kg dry
Launch date (UTC)
2025-03-15 (8 months ago)
Launch vehicle
Unknown
Launch site
Rocket Lab Launch Complex (RLLC)
Object type
Payload
Rocket body
Debris
Shape & HBR
Trunc Cone, 0.8 m
Radar Cross Section
0.760 m², Large (>1 m²)

Expand to show TLE details & history
Last TLE update: 22 hours ago

TLE from 22 hours ago
0 ELECTRON KICK STAGE R/B
1 63207U 25050C   25310.88267000  .00008016  00000-0  63662-3 0  9993
2 63207  42.0186 246.7152 0003016  39.8454 320.2594 15.00671807 35559
Epoch: 2025-11-06T21:11Z
TLE epoch observation values (Epoch: 2025-11-06T21:11:02.688Z)
Latitude
0.00006°
Longitude
-117.38054°
Altitude
562.884 km
Speed
7.583 km/s
True Right ascension
16h 26m 51s
True Declination
0° 00' 00"
Sunlit
Object was in daylight at epoch
Visualization orbit readout
Latitude
Unknown
Longitude
Unknown
Altitude
Unknown
Speed
Unknown
Apparent Right ascension
Unknown
Apparent Declination
Unknown
Sunlit
N/A
Visualization observer readout
Local Sidereal Time
15:20:31
Azimuth
Unknown
Elevation
Unknown
Doppler factor
Unknown
Orbital elements
Apogee altitude
569.003 km
Perigee altitude
564.814 km
Semi-major axis
6,945.045 km
Eccentricity
0.0003
Inclination
42.0186°
RAAN
246.7152°
Arg. of periapsis
39.8454°
True anomaly
320.2373°
Mean anomaly
320.2594°
Eccentric anomaly
320.24835°
Mean motion
3.74999 °/min
Orbital period
96 mins
BSTAR
0.00063662
Loading maneuver chart data...
Computing Atmospheric mass density...
Loading historical data...
Loading historical data...
Loading historical data...
Loading historical data...
Loading historical data...
Loading historical data...
Loading historical data...
Other satellites on launch #50 in the year 2025 (2025-03-15 UTC)

Documentation

Showing up to 5 results
|